User: anonymous   Login
Location: Caltech
(34.1382°N, 118.1253°W)
Time: 12:56:52
(UTC-08:00)
Language:

Cosmos 2333 Rocket - Orbit

View from above orbital plane
View from above orbital plane
View from above satellite
View from above satellite

Ground track
Ground track

The orbit data is extracted from the following two-line orbital elements,

1 24298U 96051B   17023.40043557  .00000053  00000-0  55054-4 0  9998
2 24298  70.8462   7.2195 0012880  30.7510 329.4362 14.12473187 51376
Epoch (UTC): 23 January 2017 09:36:37
Eccentricity: 0.0012880
inclination: 70.8462°
perigee height: 841 km
apogee height: 860 km
right ascension of ascending node: 7.2195°
argument of perigee: 30.7510°
revolutions per day: 14.12473187
mean anomaly at epoch: 329.4362°
orbit number at epoch: 5137

The dashed part of the orbit path shows where the satellite is in the earth's shadow,  

DLR